Time,TemperatureF,DewpointF,PressureIn,WindDirection,WindDirectionDegrees,WindSpeedMPH,WindSpeedGustMPH,Humidity,HourlyPrecipIn,Conditions,Clouds,dailyrainin,SoftwareType,DateUTC
2013-02-12 00:00:00,29.9,22.3,30.16,NW,307,8.0,8.0,73,0.00,,,0.00,Wunderground v.1.15,2013-02-12 07:00:00,
2013-02-12 00:10:00,29.8,22.2,30.16,NW,321,6.0,6.0,73,0.00,,,0.00,Wunderground v.1.15,2013-02-12 07:10:00,
2013-02-12 00:15:00,29.6,22.3,30.16,NW,319,6.0,8.0,74,0.00,,,0.00,Wunderground v.1.15,2013-02-12 07:15:00,
2013-02-12 00:20:00,29.6,22.3,30.16,NNW,346,6.0,6.0,74,0.00,,,0.00,Wunderground v.1.15,2013-02-12 07:20:00,
2013-02-12 00:25:00,29.4,22.5,30.17,NNE,29,5.0,6.0,75,0.00,,,0.00,Wunderground v.1.15,2013-02-12 07:25:00,
2013-02-12 00:35:00,29.3,22.4,30.18,NNW,342,4.0,5.0,75,0.00,,,0.00,Wunderground v.1.15,2013-02-12 07:35:00,
2013-02-12 00:45:00,29.2,22.3,30.19,NE,40,3.0,4.0,75,0.00,,,0.00,Wunderground v.1.15,2013-02-12 07:45:00,
2013-02-12 00:55:00,29.0,22.4,30.19,North,353,1.0,2.0,76,0.00,,,0.00,Wunderground v.1.15,2013-02-12 07:55:00,
2013-02-12 01:00:00,29.0,22.4,30.19,NW,305,2.0,2.0,76,0.00,,,0.00,Wunderground v.1.15,2013-02-12 08:00:00,
2013-02-12 01:10:00,29.2,22.6,30.20,North,349,3.0,3.0,76,0.00,,,0.00,Wunderground v.1.15,2013-02-12 08:10:00,
2013-02-12 01:20:00,29.1,22.5,30.20,North,356,2.0,2.0,76,0.00,,,0.00,Wunderground v.1.15,2013-02-12 08:20:00,
2013-02-12 01:30:00,29.2,22.6,30.20,WNW,295,3.0,3.0,76,0.00,,,0.00,Wunderground v.1.15,2013-02-12 08:30:00,
2013-02-12 01:35:00,29.2,22.6,30.20,NNW,337,3.0,3.0,76,0.00,,,0.00,Wunderground v.1.15,2013-02-12 08:35:00,
2013-02-12 01:45:00,29.1,22.5,30.21,NW,326,5.0,8.0,76,0.00,,,0.00,Wunderground v.1.15,2013-02-12 08:45:00,
2013-02-12 01:55:00,29.0,22.4,30.21,North,349,6.0,8.0,76,0.00,,,0.00,Wunderground v.1.15,2013-02-12 08:55:00,
2013-02-12 02:00:00,29.0,22.1,30.21,NNW,331,5.0,5.0,75,0.00,,,0.00,Wunderground v.1.15,2013-02-12 09:00:00,
2013-02-12 02:10:00,29.1,22.2,30.21,NNW,331,5.0,7.0,75,0.00,,,0.00,Wunderground v.1.15,2013-02-12 09:10:00,
2013-02-12 02:20:00,29.1,22.5,30.22,NNE,25,4.0,4.0,76,0.00,,,0.00,Wunderground v.1.15,2013-02-12 09:20:00,
2013-02-12 02:25:00,29.0,22.4,30.22,North,8,4.0,4.0,76,0.00,,,0.00,Wunderground v.1.15,2013-02-12 09:25:00,
2013-02-12 02:35:00,28.9,21.7,30.22,North,352,5.0,7.0,74,0.00,,,0.00,Wunderground v.1.15,2013-02-12 09:35:00,
2013-02-12 02:45:00,28.7,20.1,30.22,NNW,342,4.0,5.0,70,0.00,,,0.00,Wunderground v.1.15,2013-02-12 09:45:00,
2013-02-12 02:50:00,28.6,19.4,30.22,NE,41,3.0,3.0,68,0.00,,,0.00,Wunderground v.1.15,2013-02-12 09:50:00,
2013-02-12 03:00:00,28.5,17.1,30.22,NW,305,3.0,4.0,62,0.00,,,0.00,Wunderground v.1.15,2013-02-12 10:00:00,
2013-02-12 03:10:00,28.2,15.7,30.22,NNW,346,5.0,5.0,59,0.00,,,0.00,Wunderground v.1.15,2013-02-12 10:10:00,
2013-02-12 03:20:00,27.9,15.4,30.22,NNW,330,5.0,5.0,59,0.00,,,0.00,Wunderground v.1.15,2013-02-12 10:20:00,
2013-02-12 03:30:00,27.4,14.9,30.23,North,355,6.0,8.0,59,0.00,,,0.00,Wunderground v.1.15,2013-02-12 10:30:00,
2013-02-12 03:35:00,27.1,15.0,30.22,NNW,338,6.0,8.0,60,0.00,,,0.00,Wunderground v.1.15,2013-02-12 10:35:00,
2013-02-12 03:45:00,26.8,15.1,30.23,NNE,29,5.0,9.0,61,0.00,,,0.00,Wunderground v.1.15,2013-02-12 10:45:00,
2013-02-12 03:50:00,26.5,14.9,30.22,NNW,333,6.0,6.0,61,0.00,,,0.00,Wunderground v.1.15,2013-02-12 10:50:00,
2013-02-12 04:00:00,26.2,14.6,30.23,North,354,4.0,5.0,61,0.00,,,0.00,Wunderground v.1.15,2013-02-12 11:00:00,
2013-02-12 04:10:00,26.0,14.8,30.23,North,352,4.0,4.0,62,0.00,,,0.00,Wunderground v.1.15,2013-02-12 11:10:00,
2013-02-12 04:15:00,25.9,14.7,30.23,North,8,3.0,4.0,62,0.00,,,0.00,Wunderground v.1.15,2013-02-12 11:15:00,
2013-02-12 04:20:00,25.7,14.8,30.23,NNW,342,3.0,3.0,63,0.00,,,0.00,Wunderground v.1.15,2013-02-12 11:20:00,
2013-02-12 04:30:00,25.6,14.7,30.24,NNE,20,5.0,8.0,63,0.00,,,0.00,Wunderground v.1.15,2013-02-12 11:30:00,
2013-02-12 04:35:00,25.5,14.6,30.24,NW,316,5.0,8.0,63,0.00,,,0.00,Wunderground v.1.15,2013-02-12 11:35:00,
2013-02-12 04:45:00,25.4,14.5,30.24,NNW,330,4.0,5.0,63,0.00,,,0.00,Wunderground v.1.15,2013-02-12 11:45:00,
2013-02-12 04:50:00,25.2,14.4,30.25,NNE,23,4.0,4.0,63,0.00,,,0.00,Wunderground v.1.15,2013-02-12 11:50:00,
2013-02-12 05:00:00,25.0,14.5,30.25,North,354,3.0,4.0,64,0.00,,,0.00,Wunderground v.1.15,2013-02-12 12:00:00,
2013-02-12 05:10:00,25.0,14.5,30.25,NNW,346,3.0,3.0,64,0.00,,,0.00,Wunderground v.1.15,2013-02-12 12:10:00,
2013-02-12 05:15:00,24.9,14.4,30.25,NNE,13,2.0,3.0,64,0.00,,,0.00,Wunderground v.1.15,2013-02-12 12:15:00,
2013-02-12 05:25:00,24.7,14.2,30.25,NNE,13,3.0,4.0,64,0.00,,,0.00,Wunderground v.1.15,2013-02-12 12:25:00,
2013-02-12 05:35:00,24.5,14.1,30.26,North,7,3.0,5.0,64,0.00,,,0.00,Wunderground v.1.15,2013-02-12 12:35:00,
2013-02-12 05:40:00,24.4,14.3,30.26,NNE,23,4.0,4.0,65,0.00,,,0.00,Wunderground v.1.15,2013-02-12 12:40:00,
2013-02-12 05:50:00,24.3,14.2,30.26,NNW,334,4.0,5.0,65,0.00,,,0.00,Wunderground v.1.15,2013-02-12 12:50:00,
2013-02-12 05:55:00,24.4,14.3,30.27,North,349,5.0,5.0,65,0.00,,,0.00,Wunderground v.1.15,2013-02-12 12:55:00,
2013-02-12 06:00:00,24.4,14.3,30.27,NNE,12,5.0,7.0,65,0.00,,,0.00,Wunderground v.1.15,2013-02-12 13:00:00,
2013-02-12 06:10:00,24.4,14.7,30.27,NNW,335,6.0,6.0,66,0.00,,,0.00,Wunderground v.1.15,2013-02-12 13:10:00,
2013-02-12 06:15:00,24.2,14.5,30.27,NNE,12,6.0,6.0,66,0.00,,,0.00,Wunderground v.1.15,2013-02-12 13:15:00,
2013-02-12 06:25:00,24.0,14.6,30.28,North,7,7.0,7.0,67,0.00,,,0.00,Wunderground v.1.15,2013-02-12 13:25:00,
2013-02-12 06:30:00,23.8,14.8,30.28,NNE,12,5.0,8.0,68,0.00,,,0.00,Wunderground v.1.15,2013-02-12 13:30:00,
2013-02-12 06:35:00,23.7,14.7,30.28,North,11,4.0,8.0,68,0.00,,,0.00,Wunderground v.1.15,2013-02-12 13:35:00,
2013-02-12 06:45:00,23.6,14.6,30.28,NNW,329,4.0,4.0,68,0.00,,,0.00,Wunderground v.1.15,2013-02-12 13:45:00,
2013-02-12 06:55:00,23.3,14.6,30.29,NNW,335,2.0,3.0,69,0.00,,,0.00,Wunderground v.1.15,2013-02-12 13:55:00,
2013-02-12 07:00:00,23.2,14.5,30.29,WNW,289,2.0,2.0,69,0.00,,,0.00,Wunderground v.1.15,2013-02-12 14:00:00,
2013-02-12 07:10:00,23.0,14.7,30.30,NNW,338,2.0,4.0,70,0.00,,,0.00,Wunderground v.1.15,2013-02-12 14:10:00,
2013-02-12 07:20:00,22.9,14.6,30.30,North,357,1.0,1.0,70,0.00,,,0.00,Wunderground v.1.15,2013-02-12 14:20:00,
2013-02-12 07:25:00,22.9,14.9,30.30,NNW,330,1.0,1.0,71,0.00,,,0.00,Wunderground v.1.15,2013-02-12 14:25:00,
2013-02-12 07:35:00,23.1,14.8,30.30,NNE,15,2.0,2.0,70,0.00,,,0.00,Wunderground v.1.15,2013-02-12 14:35:00,
2013-02-12 07:45:00,23.2,14.9,30.31,NNE,14,1.0,1.0,70,0.00,,,0.00,Wunderground v.1.15,2013-02-12 14:45:00,
2013-02-12 07:50:00,23.5,14.8,30.31,NNW,340,1.0,1.0,69,0.00,,,0.00,Wunderground v.1.15,2013-02-12 14:50:00,
2013-02-12 07:55:00,23.8,14.8,30.32,NNW,330,2.0,2.0,68,0.00,,,0.00,Wunderground v.1.15,2013-02-12 14:55:00,
2013-02-12 08:00:00,24.1,14.7,30.32,NNW,347,3.0,3.0,67,0.00,,,0.00,Wunderground v.1.15,2013-02-12 15:00:00,
2013-02-12 08:10:00,24.7,14.9,30.33,North,349,3.0,4.0,66,0.00,,,0.00,Wunderground v.1.15,2013-02-12 15:10:00,
2013-02-12 08:15:00,24.8,14.7,30.33,NNE,16,4.0,6.0,65,0.00,,,0.00,Wunderground v.1.15,2013-02-12 15:15:00,
2013-02-12 08:20:00,25.1,15.0,30.33,NW,308,4.0,4.0,65,0.00,,,0.00,Wunderground v.1.15,2013-02-12 15:20:00,
2013-02-12 08:30:00,25.3,14.8,30.34,NNE,25,4.0,4.0,64,0.00,,,0.00,Wunderground v.1.15,2013-02-12 15:30:00,
2013-02-12 08:35:00,25.4,14.9,30.34,North,357,4.0,4.0,64,0.00,,,0.00,Wunderground v.1.15,2013-02-12 15:35:00,
2013-02-12 08:45:00,25.7,14.8,30.34,NNW,340,3.0,3.0,63,0.00,,,0.00,Wunderground v.1.15,2013-02-12 15:45:00,
2013-02-12 08:55:00,26.1,14.8,30.35,North,352,3.0,3.0,62,0.00,,,0.00,Wunderground v.1.15,2013-02-12 15:55:00,
2013-02-12 09:00:00,26.2,14.9,30.35,NNW,333,3.0,4.0,62,0.00,,,0.00,Wunderground v.1.15,2013-02-12 16:00:00,
2013-02-12 09:10:00,26.4,15.1,30.36,NNE,20,3.0,3.0,62,0.00,,,0.00,Wunderground v.1.15,2013-02-12 16:10:00,
2013-02-12 09:15:00,26.7,15.4,30.36,NNW,328,3.0,3.0,62,0.00,,,0.00,Wunderground v.1.15,2013-02-12 16:15:00,
2013-02-12 09:20:00,26.8,15.1,30.36,WNW,286,3.0,3.0,61,0.00,,,0.00,Wunderground v.1.15,2013-02-12 16:20:00,
2013-02-12 09:30:00,27.1,15.0,30.36,NW,324,4.0,8.0,60,0.00,,,0.00,Wunderground v.1.15,2013-02-12 16:30:00,
2013-02-12 09:40:00,27.5,15.4,30.36,NNE,15,4.0,6.0,60,0.00,,,0.00,Wunderground v.1.15,2013-02-12 16:40:00,
2013-02-12 09:50:00,28.3,15.4,30.37,NNW,338,5.0,5.0,58,0.00,,,0.00,Wunderground v.1.15,2013-02-12 16:50:00,
2013-02-12 09:55:00,28.8,15.5,30.37,North,352,4.0,5.0,57,0.00,,,0.00,Wunderground v.1.15,2013-02-12 16:55:00,
2013-02-12 10:00:00,29.4,15.2,30.37,NW,321,4.0,4.0,55,0.00,,,0.00,Wunderground v.1.15,2013-02-12 17:00:00,
2013-02-12 10:10:00,30.1,15.0,30.37,NW,316,4.0,6.0,53,0.00,,,0.00,Wunderground v.1.15,2013-02-12 17:10:00,
2013-02-12 10:20:00,30.2,15.1,30.36,NE,45,7.0,8.0,53,0.00,,,0.00,Wunderground v.1.15,2013-02-12 17:20:00,
2013-02-12 10:30:00,30.5,14.9,30.36,NNE,33,5.0,5.0,52,0.00,,,0.00,Wunderground v.1.15,2013-02-12 17:30:00,
2013-02-12 10:35:00,30.7,14.7,30.36,North,8,5.0,5.0,51,0.00,,,0.00,Wunderground v.1.15,2013-02-12 17:35:00,
2013-02-12 10:45:00,31.2,14.2,30.36,NE,41,4.0,9.0,49,0.00,,,0.00,Wunderground v.1.15,2013-02-12 17:45:00,
2013-02-12 10:50:00,31.2,14.2,30.36,NNW,347,4.0,4.0,49,0.00,,,0.00,Wunderground v.1.15,2013-02-12 17:50:00,
2013-02-12 10:55:00,31.6,14.1,30.36,WSW,249,4.0,4.0,48,0.00,,,0.00,Wunderground v.1.15,2013-02-12 17:55:00,
2013-02-12 11:00:00,31.9,14.4,30.36,NNW,333,3.0,7.0,48,0.00,,,0.00,Wunderground v.1.15,2013-02-12 18:00:00,
2013-02-12 11:10:00,32.7,14.2,30.36,NNW,347,4.0,4.0,46,0.00,,,0.00,Wunderground v.1.15,2013-02-12 18:10:00,
2013-02-12 11:20:00,33.5,14.4,30.36,North,352,5.0,7.0,45,0.00,,,0.00,Wunderground v.1.15,2013-02-12 18:20:00,
2013-02-12 11:25:00,33.1,14.5,30.35,NW,319,6.0,7.0,46,0.00,,,0.00,Wunderground v.1.15,2013-02-12 18:25:00,
2013-02-12 11:35:00,34.1,14.9,30.36,NW,317,5.0,8.0,45,0.00,,,0.00,Wunderground v.1.15,2013-02-12 18:35:00,
2013-02-12 11:40:00,34.6,14.9,30.36,WNW,297,4.0,4.0,44,0.00,,,0.00,Wunderground v.1.15,2013-02-12 18:40:00,
2013-02-12 11:50:00,34.7,13.9,30.35,NW,324,7.0,7.0,42,0.00,,,0.00,Wunderground v.1.15,2013-02-12 18:50:00,
2013-02-12 12:00:00,35.5,14.1,30.34,NNW,345,5.0,9.0,41,0.00,,,0.00,Wunderground v.1.15,2013-02-12 19:00:00,
2013-02-12 12:10:00,34.8,11.7,30.33,North,6,6.0,6.0,38,0.00,,,0.00,Wunderground v.1.15,2013-02-12 19:10:00,
2013-02-12 12:20:00,35.6,11.2,30.33,NW,310,4.0,4.0,36,0.00,,,0.00,Wunderground v.1.15,2013-02-12 19:20:00,
2013-02-12 12:25:00,36.1,12.9,30.33,North,356,5.0,8.0,38,0.00,,,0.00,Wunderground v.1.15,2013-02-12 19:25:00,
2013-02-12 12:30:00,36.1,12.9,30.32,NNW,336,4.0,4.0,38,0.00,,,0.00,Wunderground v.1.15,2013-02-12 19:30:00,
2013-02-12 12:40:00,36.8,10.3,30.32,NW,325,4.0,5.0,33,0.00,,,0.00,Wunderground v.1.15,2013-02-12 19:40:00,
2013-02-12 12:50:00,37.6,10.4,30.32,NE,35,6.0,6.0,32,0.00,,,0.00,Wunderground v.1.15,2013-02-12 19:50:00,
2013-02-12 12:55:00,37.4,10.2,30.31,NW,312,5.0,6.0,32,0.00,,,0.00,Wunderground v.1.15,2013-02-12 19:55:00,
2013-02-12 13:00:00,37.8,9.1,30.31,WNW,295,5.0,7.0,30,0.00,,,0.00,Wunderground v.1.15,2013-02-12 20:00:00,
2013-02-12 13:10:00,38.3,10.3,30.30,WNW,303,8.0,8.0,31,0.00,,,0.00,Wunderground v.1.15,2013-02-12 20:10:00,
2013-02-12 13:20:00,38.4,10.3,30.30,WNW,300,7.0,7.0,31,0.00,,,0.00,Wunderground v.1.15,2013-02-12 20:20:00,
2013-02-12 13:25:00,38.6,9.0,30.30,NW,316,7.0,11.0,29,0.00,,,0.00,Wunderground v.1.15,2013-02-12 20:25:00,
2013-02-12 13:35:00,38.1,9.4,30.29,NW,323,9.0,9.0,30,0.00,,,0.00,Wunderground v.1.15,2013-02-12 20:35:00,
2013-02-12 13:40:00,38.4,8.9,30.29,WNW,302,7.0,7.0,29,0.00,,,0.00,Wunderground v.1.15,2013-02-12 20:40:00,
2013-02-12 13:50:00,38.9,10.1,30.29,NW,316,8.0,8.0,30,0.00,,,0.00,Wunderground v.1.15,2013-02-12 20:50:00,
2013-02-12 13:55:00,38.9,10.1,30.29,NW,326,8.0,8.0,30,0.00,,,0.00,Wunderground v.1.15,2013-02-12 20:55:00,
2013-02-12 14:00:00,39.1,7.9,30.29,NW,309,7.0,7.0,27,0.00,,,0.00,Wunderground v.1.15,2013-02-12 21:00:00,
2013-02-12 14:10:00,39.5,7.4,30.29,North,1,7.0,9.0,26,0.00,,,0.00,Wunderground v.1.15,2013-02-12 21:10:00,
2013-02-12 14:15:00,39.6,8.3,30.29,NNW,329,7.0,9.0,27,0.00,,,0.00,Wunderground v.1.15,2013-02-12 21:15:00,
2013-02-12 14:20:00,39.8,6.8,30.28,NW,321,7.0,7.0,25,0.00,,,0.00,Wunderground v.1.15,2013-02-12 21:20:00,
2013-02-12 14:30:00,40.2,7.1,30.28,NNW,328,7.0,7.0,25,0.00,,,0.00,Wunderground v.1.15,2013-02-12 21:30:00,
2013-02-12 14:35:00,40.3,8.9,30.28,NNW,335,7.0,7.0,27,0.00,,,0.00,Wunderground v.1.15,2013-02-12 21:35:00,
2013-02-12 14:45:00,40.2,7.1,30.29,NNW,347,8.0,8.0,25,0.00,,,0.00,Wunderground v.1.15,2013-02-12 21:45:00,
2013-02-12 14:55:00,40.3,6.3,30.29,NW,322,7.0,8.0,24,0.00,,,0.00,Wunderground v.1.15,2013-02-12 21:55:00,
2013-02-12 15:00:00,40.3,5.4,30.29,NW,304,8.0,8.0,23,0.00,,,0.00,Wunderground v.1.15,2013-02-12 22:00:00,
2013-02-12 15:10:00,40.0,6.9,30.29,WNW,302,7.0,9.0,25,0.00,,,0.00,Wunderground v.1.15,2013-02-12 22:10:00,
2013-02-12 15:20:00,40.6,6.6,30.29,West,263,7.0,7.0,24,0.00,,,0.00,Wunderground v.1.15,2013-02-12 22:20:00,
2013-02-12 15:30:00,40.3,3.4,30.29,West,271,9.0,9.0,21,0.00,,,0.00,Wunderground v.1.15,2013-02-12 22:30:00,
2013-02-12 15:35:00,40.2,4.3,30.30,WNW,303,10.0,11.0,22,0.00,,,0.00,Wunderground v.1.15,2013-02-12 22:35:00,
2013-02-12 15:45:00,40.4,5.5,30.30,NW,316,8.0,9.0,23,0.00,,,0.00,Wunderground v.1.15,2013-02-12 22:45:00,
2013-02-12 15:55:00,40.1,6.1,30.30,NNW,329,9.0,15.0,24,0.00,,,0.00,Wunderground v.1.15,2013-02-12 22:55:00,
2013-02-12 16:00:00,40.0,6.0,30.30,NW,321,9.0,9.0,24,0.00,,,0.00,Wunderground v.1.15,2013-02-12 23:00:00,
2013-02-12 16:10:00,39.9,6.0,30.30,NW,324,8.0,10.0,24,0.00,,,0.00,Wunderground v.1.15,2013-02-12 23:10:00,
2013-02-12 16:15:00,40.1,6.1,30.31,NW,309,8.0,10.0,24,0.00,,,0.00,Wunderground v.1.15,2013-02-12 23:15:00,
2013-02-12 16:25:00,39.9,5.0,30.30,North,353,8.0,13.0,23,0.00,,,0.00,Wunderground v.1.15,2013-02-12 23:25:00,
2013-02-12 16:30:00,40.1,5.2,30.31,NNE,13,7.0,7.0,23,0.00,,,0.00,Wunderground v.1.15,2013-02-12 23:30:00,
2013-02-12 16:40:00,39.5,5.6,30.31,NW,316,8.0,8.0,24,0.00,,,0.00,Wunderground v.1.15,2013-02-12 23:40:00,
2013-02-12 16:50:00,39.6,5.7,30.32,NNW,330,9.0,9.0,24,0.00,,,0.00,Wunderground v.1.15,2013-02-12 23:50:00,
2013-02-12 16:55:00,39.6,5.7,30.31,WSW,257,6.0,9.0,24,0.00,,,0.00,Wunderground v.1.15,2013-02-12 23:55:00,
2013-02-12 17:00:00,39.4,6.4,30.32,NW,319,7.0,8.0,25,0.00,,,0.00,Wunderground v.1.15,2013-02-13 00:00:00,
2013-02-12 17:10:00,39.1,6.2,30.32,North,3,7.0,10.0,25,0.00,,,0.00,Wunderground v.1.15,2013-02-13 00:10:00,
2013-02-12 17:15:00,39.0,6.1,30.32,NW,312,8.0,10.0,25,0.00,,,0.00,Wunderground v.1.15,2013-02-13 00:15:00,
2013-02-12 17:20:00,38.8,5.9,30.32,NW,314,8.0,8.0,25,0.00,,,0.00,Wunderground v.1.15,2013-02-13 00:20:00,
2013-02-12 17:30:00,38.5,5.7,30.33,North,356,7.0,7.0,25,0.00,,,0.00,Wunderground v.1.15,2013-02-13 00:30:00,
2013-02-12 17:40:00,37.7,6.7,30.33,NW,304,7.0,8.0,27,0.00,,,0.00,Wunderground v.1.15,2013-02-13 00:40:00,
2013-02-12 17:45:00,37.5,6.5,30.33,NW,315,7.0,8.0,27,0.00,,,0.00,Wunderground v.1.15,2013-02-13 00:45:00,
2013-02-12 17:50:00,37.3,7.1,30.34,NNW,347,5.0,5.0,28,0.00,,,0.00,Wunderground v.1.15,2013-02-13 00:50:00,
2013-02-12 18:00:00,36.7,7.4,30.34,NW,315,5.0,5.0,29,0.00,,,0.00,Wunderground v.1.15,2013-02-13 01:00:00,
2013-02-12 18:10:00,36.3,7.8,30.34,NNW,336,5.0,6.0,30,0.00,,,0.00,Wunderground v.1.15,2013-02-13 01:10:00,
2013-02-12 18:15:00,36.1,7.6,30.35,North,349,6.0,6.0,30,0.00,,,0.00,Wunderground v.1.15,2013-02-13 01:15:00,
2013-02-12 18:25:00,35.8,8.1,30.35,NW,312,5.0,7.0,31,0.00,,,0.00,Wunderground v.1.15,2013-02-13 01:25:00,
2013-02-12 18:30:00,35.7,8.0,30.35,NNW,330,5.0,5.0,31,0.00,,,0.00,Wunderground v.1.15,2013-02-13 01:30:00,
2013-02-12 18:40:00,35.4,7.7,30.36,ENE,64,5.0,5.0,31,0.00,,,0.00,Wunderground v.1.15,2013-02-13 01:40:00,
2013-02-12 18:50:00,35.1,8.2,30.36,NNE,25,4.0,8.0,32,0.00,,,0.00,Wunderground v.1.15,2013-02-13 01:50:00,
2013-02-12 19:00:00,34.8,8.6,30.37,NNW,337,5.0,6.0,33,0.00,,,0.00,Wunderground v.1.15,2013-02-13 02:00:00,
2013-02-12 19:10:00,34.5,9.0,30.37,North,7,4.0,4.0,34,0.00,,,0.00,Wunderground v.1.15,2013-02-13 02:10:00,
2013-02-12 19:15:00,34.5,9.0,30.38,NNW,340,4.0,4.0,34,0.00,,,0.00,Wunderground v.1.15,2013-02-13 02:15:00,
2013-02-12 19:25:00,34.0,8.5,30.38,North,353,2.0,3.0,34,0.00,,,0.00,Wunderground v.1.15,2013-02-13 02:25:00,
2013-02-12 19:35:00,33.8,9.0,30.38,North,359,3.0,3.0,35,0.00,,,0.00,Wunderground v.1.15,2013-02-13 02:35:00,
2013-02-12 19:40:00,33.7,8.9,30.38,NNW,329,3.0,3.0,35,0.00,,,0.00,Wunderground v.1.15,2013-02-13 02:40:00,
2013-02-12 19:50:00,33.7,8.9,30.39,North,7,4.0,4.0,35,0.00,,,0.00,Wunderground v.1.15,2013-02-13 02:50:00,
2013-02-12 20:00:00,33.7,8.9,30.39,NNW,339,5.0,5.0,35,0.00,,,0.00,Wunderground v.1.15,2013-02-13 03:00:00,
2013-02-12 20:10:00,33.5,8.7,30.40,NNW,330,4.0,4.0,35,0.00,,,0.00,Wunderground v.1.15,2013-02-13 03:10:00,
2013-02-12 20:20:00,33.1,9.0,30.40,NW,326,3.0,6.0,36,0.00,,,0.00,Wunderground v.1.15,2013-02-13 03:20:00,
2013-02-12 20:25:00,33.2,8.5,30.40,North,7,4.0,6.0,35,0.00,,,0.00,Wunderground v.1.15,2013-02-13 03:25:00,
2013-02-12 20:35:00,32.9,8.2,30.40,NNE,27,4.0,5.0,35,0.00,,,0.00,Wunderground v.1.15,2013-02-13 03:35:00,
2013-02-12 20:45:00,32.7,8.0,30.40,NW,324,4.0,4.0,35,0.00,,,0.00,Wunderground v.1.15,2013-02-13 03:45:00,
2013-02-12 20:50:00,32.7,8.0,30.40,North,6,4.0,9.0,35,0.00,,,0.00,Wunderground v.1.15,2013-02-13 03:50:00,
2013-02-12 21:00:00,32.6,7.9,30.40,NNW,336,3.0,3.0,35,0.00,,,0.00,Wunderground v.1.15,2013-02-13 04:00:00,
2013-02-12 21:10:00,32.0,8.0,30.41,NNW,338,1.0,1.0,36,0.00,,,0.00,Wunderground v.1.15,2013-02-13 04:10:00,
2013-02-12 21:15:00,31.7,8.4,30.41,NNW,342,1.0,1.0,37,0.00,,,0.00,Wunderground v.1.15,2013-02-13 04:15:00,
2013-02-12 21:25:00,31.1,8.4,30.40,NW,325,1.0,1.0,38,0.00,,,0.00,Wunderground v.1.15,2013-02-13 04:25:00,
2013-02-12 21:30:00,30.9,8.8,30.41,NW,322,1.0,1.0,39,0.00,,,0.00,Wunderground v.1.15,2013-02-13 04:30:00,
2013-02-12 21:40:00,30.7,9.2,30.41,NW,322,1.0,1.0,40,0.00,,,0.00,Wunderground v.1.15,2013-02-13 04:40:00,
2013-02-12 21:50:00,30.6,10.2,30.41,NW,321,2.0,3.0,42,0.00,,,0.00,Wunderground v.1.15,2013-02-13 04:50:00,
2013-02-12 22:00:00,31.0,10.6,30.42,NW,323,4.0,4.0,42,0.00,,,0.00,Wunderground v.1.15,2013-02-13 05:00:00,
2013-02-12 22:05:00,30.9,10.5,30.42,North,352,4.0,4.0,42,0.00,,,0.00,Wunderground v.1.15,2013-02-13 05:05:00,
2013-02-12 22:10:00,30.7,10.3,30.42,NE,34,3.0,3.0,42,0.00,,,0.00,Wunderground v.1.15,2013-02-13 05:10:00,
2013-02-12 22:15:00,30.4,10.5,30.41,North,354,2.0,3.0,43,0.00,,,0.00,Wunderground v.1.15,2013-02-13 05:15:00,
2013-02-12 22:25:00,29.5,10.2,30.42,NNE,27,0.0,1.0,44,0.00,,,0.00,Wunderground v.1.15,2013-02-13 05:25:00,
2013-02-12 22:30:00,28.9,10.2,30.42,NNE,27,0.0,0.0,45,0.00,,,0.00,Wunderground v.1.15,2013-02-13 05:30:00,
2013-02-12 22:40:00,28.1,10.4,30.41,NNE,27,0.0,0.0,47,0.00,,,0.00,Wunderground v.1.15,2013-02-13 05:40:00,
2013-02-12 22:50:00,28.0,10.3,30.42,North,357,0.0,0.0,47,0.00,,,0.00,Wunderground v.1.15,2013-02-13 05:50:00,
2013-02-12 23:00:00,27.9,10.2,30.42,North,349,0.0,0.0,47,0.00,,,0.00,Wunderground v.1.15,2013-02-13 06:00:00,
2013-02-12 23:10:00,27.9,10.7,30.42,North,1,0.0,1.0,48,0.00,,,0.00,Wunderground v.1.15,2013-02-13 06:10:00,
2013-02-12 23:20:00,28.2,10.5,30.42,NNE,27,2.0,2.0,47,0.00,,,0.00,Wunderground v.1.15,2013-02-13 06:20:00,
2013-02-12 23:25:00,28.2,11.0,30.42,NNE,27,3.0,3.0,48,0.00,,,0.00,Wunderground v.1.15,2013-02-13 06:25:00,
2013-02-12 23:35:00,28.1,10.9,30.41,NNW,330,3.0,5.0,48,0.00,,,0.00,Wunderground v.1.15,2013-02-13 06:35:00,
2013-02-12 23:45:00,28.1,10.9,30.41,NNE,18,3.0,3.0,48,0.00,,,0.00,Wunderground v.1.15,2013-02-13 06:45:00,
2013-02-12 23:55:00,27.9,10.7,30.42,NNE,32,2.0,3.0,48,0.00,,,0.00,Wunderground v.1.15,2013-02-13 06:55:00,